Location: Unspecified
(0.0000°N, 0.0000°E)
Time: 09:29:13
(UTC+00:00)

STARLINK-32002 - Pass Details

Date: 19 December 2025
Orbit: 475 x 476 km, 53.2° (Epoch: 18 January)

Event Time Altitude Azimuth Distance (km) Brightness Sun altitude
Exits shadow 04:19:24 52° 40° (NE) 590 3.8 -22.3°
Maximum altitude 04:19:37 53° 56° (NE) 582 3.8 -22.2°
Drops below altitude 10° 04:23:14 10° 134° (SE) 1,637 7.0 -21.4°
Sets 04:25:25 0° 139° (SE) 2,517 8.2 -20.9°
